LUCH 5A (SDCM/PRN 140)

Last updated on Aug. 14, 2020, 5:31 a.m. UTC

1 37951U 11074B   20226.44911881 -.00000046  00000-0  00000+0 0  9996
2 37951   3.3884 113.3031 0004104  13.7165 164.0761  1.00269620 31798
UTC
Height (km)
Latitude
Longitude
Inclination
Orbital Period
UTC large
Height (km)
Speed (km/s)
/
Latitude / Longitude
Inclination (degrees)
Orbital Period (minutes)
Azimuth
Elevation
Range (km)
Doppler Factor
iOS Compass Heading
iOS Angle

Next 30 passes for location: Hong Kong

Rise time Rise Azimuth (degrees) Set time Set Azimuth (degrees) Duration Max altitude (degrees)

No matching passes for this satellites